Location: Fiume Bormida
(44.3833°N, 8.2167°E)
Time: 08:04:23
(UTC+00:00)

Daily predictions for brighter satellites

Satellite Brightness Start Highest point End
(mag) Time Altitude Azimuth Time Altitude Azimuth Time Altitude Azimuth
NOAA 12 4.5 16:13:11 10° SE 16:18:09 43° ENE 16:23:10 10° N
SJ-7 4.3 16:15:03 10° SSE 16:19:01 81° ENE 16:23:01 10° N
Cosmos 1933 3.5 16:16:44 10° S 16:20:47 83° W 16:24:54 10° N
CZ-4C R/B 3.1 16:19:14 10° NNE 16:22:51 67° ESE 16:26:23 10° S
Lacrosse 5 rocket 3.0 16:21:25 10° WNW 16:24:03 18° NNW 16:26:39 10° NNE
Cosmos 1151 Rocket 3.0 16:20:33 10° S 16:24:48 83° E 16:29:05 10° N
CRYOSAT 2 4.4 16:21:07 10° N 16:26:03 80° E 16:30:57 10° S
Cosmos 2263 4.3 16:22:24 10° NNW 16:27:53 52° ENE 16:33:21 10° SE
Lacrosse 4 Rocket 3.0 16:25:57 10° SSE 16:28:43 18° ESE 16:31:29 10° ENE
Cosmos 489 Rocket 4.5 16:22:34 10° SSW 16:28:45 78° ESE 16:35:01 10° NNE
USA 267 4.3 16:24:40 10° ENE 16:30:06 29° N 16:35:34 10° NW
ADEOS Rocket 3.8 16:25:30 10° NNE 16:33:20 79° WNW 16:40:51 10° SSW
ISS -2.9 16:30:58 10° NW 16:34:05 33° NNE 16:37:02 11° E
Radarsat Rocket 4.3 16:27:56 10° SSE 16:34:12 81° ENE 16:41:21 10° NNW
CZ-4B DEB 4.4 16:29:38 10° SSE 16:35:06 79° WSW 16:40:36 10° NNW
MOS 1-B 4.5 16:29:42 10° SSE 16:35:31 85° WSW 16:41:23 10° NNW
Cosmos 2366 rocket 3.9 16:29:27 10° N 16:35:39 79° E 16:41:47 10° S
BREEZE-M DEB (TANK) 1.8 16:35:59 10° WSW 16:38:40 59° NNW 16:40:11 15° ENE
SL-23 DEB 4.1 16:36:35 10° WSW 16:40:00 68° NNW 16:44:46 12° ENE
Cosmos 1812 3.7 16:36:48 10° SSE 16:40:02 26° E 16:43:16 10° NNE
Cosmos 2218 Rocket 4.0 16:34:17 10° N 16:40:28 89° E 16:46:40 10° S
Cosmos 923 Rocket 4.4 16:35:57 10° S 16:40:48 42° ESE 16:45:43 10° NE
YAOGAN 1 4.4 16:41:41 12° NE 16:41:41 12° NE 16:42:52 10° NE
Cosmos 1943 Rocket 3.1 16:38:47 10° NNW 16:44:12 54° WSW 16:49:38 10° S
H-2A R/B 2.7 16:40:15 10° S 16:44:24 74° WSW 16:48:26 10° NNW
Cosmos 1470 Rocket 3.5 16:40:26 10° N 16:44:47 85° E 16:49:06 10° S
CENTAUR R/B 3.1 16:39:36 10° S 16:44:48 36° ESE 16:50:21 12° NE
YAOGAN 6 2.9 16:42:47 10° S 16:46:22 68° WSW 16:49:55 10° NNW
Cosmos 1461 3.8 16:42:52 10° S 16:47:05 37° ESE 16:50:43 14° NE
TELKOM 3 3.5 16:44:47 10° WNW 16:47:29 43° NNE 16:48:57 19° E
X-37B 0.5 16:44:44 10° W 16:47:55 76° N 16:50:19 16° E
ERS-2 3.2 16:45:52 12° NE 16:48:40 25° E 16:51:45 10° SSE
NOAA 11 4.3 16:44:46 10° SSE 16:50:03 55° ENE 16:55:22 10° N
Cosmos 1515 Rocket 3.5 16:45:49 10° S 16:50:12 78° E 16:54:39 10° N
Meteor 2-6 Rocket 4.3 16:50:16 10° SSE 16:55:35 51° E 17:00:50 10° NNE
CZ-4B R/B 3.1 16:50:32 10° SSE 16:55:50 88° WSW 17:01:10 10° NNW
Cosmos 1602 4.2 16:52:20 10° NNW 16:56:13 64° W 17:00:01 10° S
Cosmos 1943 3.2 16:51:01 10° SSW 16:56:41 79° ESE 17:02:23 10° NNE
Cosmos 1603 3.7 16:52:02 10° SSW 16:57:39 90° ESE 17:03:18 10° NNE
Cosmos 2369 Rocket 2.6 16:52:41 10° NNW 16:58:21 69° WSW 17:03:55 10° SSE
Cosmos 1238 Rocket 3.7 16:54:44 10° N 16:58:56 40° E 17:03:56 10° SSE
COSMO-SKYMED 1 3.3 16:58:58 12° NE 17:02:30 33° E 17:06:26 10° SSE
Cosmos 1680 Rocket 3.7 17:00:59 10° S 17:06:06 54° ESE 17:10:55 12° NNE
AQUARIUS 4.3 17:02:19 10° S 17:06:48 77° WSW 17:11:19 10° NNW
NOSS 3-2 (C) 3.6 17:01:49 10° SSW 17:07:08 49° ESE 17:11:34 18° NE
Cosmos 44 Rocket 3.4 17:02:34 10° NNW 17:07:47 82° NE 17:12:59 10° SE
Cosmos 1934 Rocket 4.4 17:04:47 10° N 17:10:40 38° ENE 17:16:28 10° SE
H-2A R/B 3.1 17:10:52 21° ENE 17:11:11 21° ENE 17:14:58 10° NNE
CZ-2D R/B 3.8 17:09:12 10° SE 17:12:40 33° ENE 17:16:10 10° N
CZ-4B R/B 1.2 17:10:42 17° NNE 17:13:01 65° ESE 17:16:12 10° S
Cosmos 1933 Rocket 3.9 17:10:01 10° NNW 17:14:28 69° W 17:18:52 10° S
MOS 1 Rocket 4.5 17:12:57 19° NE 17:15:30 28° E 17:19:58 10° SSE
Meteor 1-5 Rocket 4.2 17:09:57 10° N 17:15:50 76° ENE 17:21:29 10° SSE
BREEZE-M DEB (TANK) 3.0 17:15:02 10° SW 17:18:44 34° SSE 17:19:40 27° ESE
Meteor 1-11 Rocket 3.9 17:15:09 10° N 17:20:51 52° ENE 17:26:38 10° SSE
CZ-2C R/B 3.4 17:16:28 10° SE 17:20:53 35° ENE 17:25:13 10° N
Cosmos 1371 Rocket 4.1 17:18:12 10° NNW 17:23:18 52° ENE 17:28:25 10° SE
Cosmos 2228 Rocket 3.0 17:19:10 10° S 17:23:40 85° E 17:28:11 10° N
SAR-Lupe-4 3.9 17:23:08 36° ENE 17:23:54 42° E 17:27:19 10° S
H-2A R/B 3.5 17:22:47 10° N 17:26:41 36° WNW 17:30:41 10° SW
Cosmos 2112 Rocket 3.9 17:22:43 10° S 17:27:58 72° ESE 17:32:04 17° NNE
Nadezhda 3 Rocket 4.0 17:22:03 10° S 17:28:25 84° E 17:34:48 10° N
Cosmos 1666 2.7 17:24:40 10° N 17:28:29 57° E 17:32:16 10° SSE
Cosmos 2056 Rocket 3.6 17:23:57 10° NNW 17:29:10 52° ENE 17:34:25 10° SE
Cosmos 1656 Rocket 4.0 17:24:02 10° NNW 17:29:37 68° WSW 17:35:06 10° SSE
NOSS 3-2 (A) 3.5 17:24:05 10° SW 17:29:43 74° NW 17:34:34 18° NNE
Cosmos 1939 Rocket 2.7 17:27:05 10° SSE 17:30:58 82° ENE 17:34:57 10° N
Cosmos 1500 4.0 17:29:56 10° NNW 17:33:41 53° W 17:37:26 10° S
Cosmos 1821 Rocket 4.0 17:27:47 10° N 17:34:06 86° W 17:40:28 10° S
USA 281 3.5 17:33:04 15° ESE 17:38:09 43° NE 17:44:18 10° NNW
USA 215 3.9 17:36:51 28° E 17:39:06 35° SE 17:44:59 10° SSW
SAR-Lupe-1 3.9 17:40:22 60° ENE 17:40:46 67° ESE 17:44:20 10° S
Cosmos 1437 Rocket 2.6 17:36:55 10° S 17:40:49 71° E 17:41:51 46° NNE
IRS-1C Rocket 4.0 17:35:55 10° SSE 17:41:11 80° ENE 17:46:29 10° NNW
CZ-4 R/B 2.1 17:42:47 37° NNE 17:42:47 37° NNE 17:45:35 10° N
USA 276 2.2 17:40:26 10° SW 17:43:26 71° S 17:43:26 71° S
BREEZE-M DEB (TANK) 3.1 17:35:50 10° WSW 17:44:42 85° SSE 17:45:38 52° ENE
Cosmos 1624 Rocket 3.9 17:39:42 10° NNW 17:45:00 72° ENE 17:50:13 10° SSE
Helios 1A Rocket 4.4 17:47:27 23° N 17:47:27 23° N 17:49:05 10° N
Cosmos 1869 Rocket 3.8 17:45:36 10° NNW 17:50:04 71° W 17:54:29 10° S
SKYMED 2 3.6 17:47:36 19° N 17:50:42 77° WNW 17:55:01 10° SSW
Okean O Rocket 3.8 17:47:41 10° SSW 17:51:22 26° W 17:55:06 10° NW
Cosmos 371 Rocket 3.3 17:46:34 10° NNW 17:51:29 85° WSW 17:56:19 10° SSE
USA 238 DEB 3.9 17:45:07 10° SW 17:51:39 65° NW 17:56:08 23° NNE
USA 238 3.9 17:45:12 10° SW 17:51:45 66° NW 17:56:13 23° NNE
Meteor 1-27 Rocket 3.5 17:50:17 10° S 17:55:48 81° E 18:00:15 17° NNE
Cosmos 1420 Rocket 4.0 17:51:50 10° NNW 17:56:57 53° ENE 17:56:57 53° ENE
SL-8 R/B 3.6 17:53:21 10° SW 17:58:05 67° SSE 17:58:34 62° ESE
Cosmos 1689 Rocket 4.3 18:01:37 20° SSW 18:01:37 20° SSW 18:02:40 10° SSW
Okean-O 2.4 17:55:42 10° SSE 18:00:07 80° ENE 18:04:34 10° N
Lacrosse 5 rocket 3.8 18:03:16 10° NNW 18:03:20 10° NNW 18:03:20 10° NNW
CSL-04 Debris 4.2 18:05:57 56° ENE 18:05:57 56° ENE 18:11:04 10° N
PSLV R/B 3.9 18:06:03 72° NNW 18:06:19 77° WNW 18:10:22 10° SSW
Lacrosse 4 Rocket 2.3 18:03:06 10° SW 18:07:00 44° NW 18:07:52 38° NNW
ISS -2.3 18:07:44 10° WNW 18:10:01 37° W 18:10:01 37° W
DEBRIS 3.2 18:02:01 10° WNW 18:11:59 84° NNE 18:12:15 78° E
USA 267 3.7 18:11:20 40° NE 18:12:07 41° NNE 18:18:09 10° NW
ATLAS 3B R/B 3.0 18:07:04 10° S 18:12:26 41° SE 18:12:26 41° SE
Cosmos 2084 4.4 18:09:28 10° WSW 18:13:33 41° NW 18:14:09 38° NNW
CSL-04 Rocket 4.4 18:17:20 37° N 18:17:20 37° N 18:20:35 10° N
YAOGAN 1 3.9 18:18:51 30° NNW 18:18:51 30° NNW 18:21:08 10° NNW
Cosmos 1605 Rocket 3.8 18:15:11 10° N 18:21:19 83° E 18:27:27 10° S
ERS-2 4.4 18:20:27 17° NNW 18:22:06 23° WNW 18:25:00 10° WSW
X-37B 3.3 18:21:24 10° W 18:22:35 20° W 18:22:35 20° W
Cosmos 1339 Rocket 4.5 18:21:19 10° S 18:27:34 83° W 18:32:10 20° N
Cosmos 332 Rocket 4.3 18:23:52 10° NNW 18:28:35 56° WSW 18:29:58 40° SSW
CENTAUR R/B 3.2 18:29:23 10° WSW 18:35:12 49° NW 18:37:34 36° N
H-2A R/B 3.0 18:51:29 43° NW 18:51:29 43° NW 18:55:15 10° NNW
USA 215 3.9 19:24:13 50° WSW 19:24:13 50° WSW 19:28:56 10° WSW
USA 281 4.2 19:19:59 29° SSW 19:22:39 41° WSW 19:28:48 10° NW
